Waarnemingen

Advertentie
Mijn weer
Andernach, Duitsland (10520): temperatuur & dauwpunt: 20.05.2017 16:00:00 - 26.05.2017 16:00:00 (CEST)Andernach, Duitsland (10520): temperatuur 5cm & temperatuur -5cm: 20.05.2017 16:00:00 - 26.05.2017 16:00:00 (CEST)Andernach, Duitsland (10520): temperatuur -20cm & temperatuur -100cm: 20.05.2017 16:00:00 - 26.05.2017 16:00:00 (CEST)Andernach, Duitsland (10520): windsnelheid & windstoten: 20.05.2017 16:00:00 - 26.05.2017 16:00:00 (CEST)Andernach, Duitsland (10520): windrichting: 20.05.2017 16:00:00 - 26.05.2017 16:00:00 (CEST)Andernach, Duitsland (10520): luchtdruk: 20.05.2017 16:00:00 - 26.05.2017 16:00:00 (CEST)Andernach, Duitsland (10520): zicht: 20.05.2017 16:00:00 - 26.05.2017 16:00:00 (CEST)Andernach, Duitsland (10520): Zonneschijnduur: 20.05.2017 16:00:00 - 26.05.2017 16:00:00 (CEST)Andernach, Duitsland (10520): neerslag: 20.05.2017 16:00:00 - 26.05.2017 16:00:00 (CEST)
Datum & Tijd tt [°C] td [°C] tt 5cm [°C] tt -5cm [°C] tt -20cm [°C] tt -100cm [°C] ff [km/u] ff [kn] fx [km/u] fx [kn] dd ppp [hPa] vv [km] sd [min] rr [mm]
26.05.2017 16:00:00 25,7 11,2 30,6 36,9 22,9 14,5 14 8 30 16 ZO 1019,3 31 60 0,0
26.05.2017 15:00:00 25,6 11,5 31,4 36,2 21,9 14,5 16 9 29 15 OZO 1020,0 37 60 0,0
26.05.2017 14:00:00 24,3 11,1 29,6 34,7 20,9 14,5 14 8 28 15 OZO 1020,9 26 60 0,0
26.05.2017 13:00:00 23,1 12,1 29,1 32,2 20,0 14,5 10 5 27 15 ZO 1021,5 34 60 0,0
26.05.2017 12:00:00 21,0 11,7 26,9 28,8 19,3 14,5 9 5 21 11 OZO 1022,2 33 59 0,0
26.05.2017 11:00:00 19,9 12,3 25,0 25,2 18,9 14,5 10 5 19 10 O 1022,7 29 60 0,0
26.05.2017 10:00:00 18,7 12,8 22,6 21,4 18,7 14,5 10 6 20 11 O 1023,0 28 60 0,0
26.05.2017 09:00:00 17,4 11,9 20,1 17,8 18,8 14,5 3 2 8 5 OZO 1023,2 25 60 0,0
26.05.2017 08:00:00 14,2 11,3 16,6 15,4 19,1 14,5 5 3 9 5 Z 1023,2 19 60 0,0
26.05.2017 07:00:00 11,6 10,0 12,9 14,6 19,6 14,5 5 3 8 4 ZZW 1023,1 18 49 0,0
26.05.2017 06:00:00 9,6 9,0 8,0 14,9 20,0 14,5 6 3 8 4 ZZW 1023,2 14 0 0,0
26.05.2017 05:00:00 10,3 9,5 7,5 15,7 20,5 14,5 6 3 8 4 ZZW 1022,8 9 0 0,0
26.05.2017 04:00:00 11,7 10,5 9,2 16,5 21,0 14,5 3 2 9 5 W 1022,5 19 0 0,0
26.05.2017 03:00:00 11,8 10,4 9,7 17,4 21,5 14,4 5 3 9 5 ZZW 1022,2 9 0 0,0
26.05.2017 02:00:00 12,4 10,7 8,9 18,5 22,0 14,4 3 1 8 4 W 1022,3 18 0 0,0
26.05.2017 01:00:00 13,8 11,2 11,4 19,7 22,4 14,4 7 4 9 5 ZZW 1022,5 23 0 0,0
26.05.2017 00:00:00 17,8 11,2 12,2 21,2 22,9 14,4 5 3 11 6 N 1022,2 33 0 0,0
25.05.2017 23:00:00 18,5 11,1 15,3 22,7 23,3 14,4 5 3 19 10 O 1022,2 30 0 0,0
25.05.2017 22:00:00 20,4 11,0 18,3 24,6 23,6 14,4 10 6 25 14 NNO 1021,8 37 5 0,0
25.05.2017 21:00:00 21,8 10,7 20,0 26,9 23,7 14,4 10 5 26 14 NNO 1021,3 36 60 0,0
25.05.2017 20:00:00 23,1 9,8 22,5 29,4 23,6 14,4 16 9 29 16 NNO 1021,1 43 60 0,0
25.05.2017 19:00:00 24,1 8,5 24,3 31,7 23,2 14,4 18 10 33 18 N 1021,1 31 59 0,0
25.05.2017 18:00:00 24,5 10,1 26,5 33,3 22,7 14,3 15 8 29 16 NNW 1021,2 31 59 0,0
25.05.2017 17:00:00 23,4 11,4 28,0 33,8 22,0 14,3 14 7 29 16 NNW 1021,8 31 56 0,0
25.05.2017 16:00:00 22,9 11,6 26,7 33,9 21,2 14,3 14 8 29 16 NW 1022,4 30 58 0,0
25.05.2017 15:00:00 21,7 10,9 28,4 32,9 20,4 14,3 18 10 31 17 NW 1022,8 24 60 0,0
25.05.2017 14:00:00 21,1 11,1 27,0 31,4 19,5 14,3 17 9 29 15 NNW 1023,1 23 60 0,0
25.05.2017 13:00:00 20,0 11,0 26,7 29,1 18,8 14,3 18 10 29 16 NW 1023,7 25 60 0,0
25.05.2017 12:00:00 19,0 11,4 25,1 26,1 18,2 14,3 14 8 25 14 NNW 1023,9 23 59 0,0
25.05.2017 11:00:00 17,6 11,7 23,4 23,1 17,9 14,3 14 8 25 13 NW 1024,4 21 56 0,0
25.05.2017 10:00:00 16,7 11,9 23,5 19,8 17,8 14,3 11 6 20 11 NW 1024,4 14 55 0,0
25.05.2017 09:00:00 15,3 12,0 17,8 16,5 17,8 14,3 11 6 20 11 NNW 1024,2 12 26 0,0
25.05.2017 08:00:00 14,4 11,5 17,1 15,2 18,1 14,2 11 6 23 12 NNW 1024,3 13 60 0,0
25.05.2017 07:00:00 13,8 11,5 14,3 14,3 18,4 14,2 7 4 16 9 NNW 1024,0 16 32 0,0
25.05.2017 06:00:00 11,9 10,6 9,5 14,5 18,7 14,2 2 1 10 6 W 1023,7 20 0 0,0
25.05.2017 05:00:00 11,9 10,8 8,6 15,4 19,1 14,2 2 1 6 3 WNW 1023,4 27 0 0,0
25.05.2017 04:00:00 13,6 11,1 9,6 16,1 19,4 14,2 0 0 13 7 N 1023,5 31 0 0,0
25.05.2017 03:00:00 16,3 11,5 13,8 16,9 19,7 14,2 9 5 18 10 N 1023,3 35 0 0,0
25.05.2017 02:00:00 16,6 12,6 14,4 17,5 20,0 14,2 7 4 16 9 NW 1023,2 31 0 0,0
25.05.2017 01:00:00 17,3 12,4 14,6 18,3 20,3 14,2 7 4 16 8 NW 1023,1 34 0 0,0
25.05.2017 00:00:00 17,5 12,1 14,6 19,3 20,6 14,2 7 4 13 7 WNW 1022,9 37 0 0,0
24.05.2017 23:00:00 19,1 12,6 15,3 20,5 20,7 14,1 4 2 8 5 WNW 1022,8 36 0 0,0
24.05.2017 22:00:00 20,0 13,3 18,2 21,5 20,9 14,1 3 2 8 4 NNW 1022,5 32 0 0,0
24.05.2017 21:00:00 20,6 12,8 18,0 22,6 20,9 14,1 4 2 18 10 WNW 1022,1 29 0 0,0
24.05.2017 20:00:00 21,6 12,0 21,2 23,8 20,8 14,1 12 6 25 13 NNW 1021,9 29 3 0,0
24.05.2017 19:00:00 21,7 11,4 21,6 24,4 20,7 14,1 13 7 31 17 NNW 1021,9 29 6 0,0
24.05.2017 18:00:00 21,7 13,0 22,5 24,7 20,5 14,1 12 7 26 14 NW 1022,1 23 1 0,0
24.05.2017 17:00:00 21,3 12,7 22,6 25,5 20,3 14,1 13 7 21 12 NW 1022,4 27 1 0,0
24.05.2017 16:00:00 20,9 12,3 22,5 25,3 20,0 14,1 9 5 24 13 NW 1022,8 30 1 0,0
24.05.2017 15:00:00 20,8 12,1 24,4 24,5 19,7 14,1 8 5 26 14 NW 1023,0 30 0 0,0
24.05.2017 14:00:00 20,2 12,3 23,8 24,2 19,3 14,0 9 5 20 11 W 1023,5 28 0 0,0
24.05.2017 13:00:00 19,4 11,5 21,2 24,4 18,9 14,0 9 5 19 10 NNW 1023,7 27 0 0,0
24.05.2017 12:00:00 18,9 11,6 23,5 23,7 18,5 14,0 8 4 17 9 NNW 1024,1 29 3 0,0
24.05.2017 11:00:00 18,2 10,6 23,6 21,6 18,2 14,0 9 5 14 7 NNW 1024,3 27 8 0,0
24.05.2017 10:00:00 17,9 9,6 22,5 19,7 18,2 14,0 4 2 9 5 O 1024,6 35 60 0,0
24.05.2017 09:00:00 15,8 9,2 17,6 16,6 18,3 14,0 2 1 7 4 NO 1024,4 34 30 0,0
24.05.2017 08:00:00 13,7 8,6 15,8 14,8 18,6 14,0 4 2 6 4 Z 1024,4 33 55 0,0
24.05.2017 07:00:00 10,8 8,3 11,2 13,9 19,0 14,0 5 3 6 4 Z 1024,3 31 24 0,0
24.05.2017 06:00:00 10,0 7,9 6,7 14,2 19,5 14,0 3 2 8 5 WZW 1024,1 34 0 0,0
24.05.2017 05:00:00 10,8 8,0 6,6 15,0 19,9 14,0 4 2 7 4 WNW 1023,5 39 0 0,0
24.05.2017 04:00:00 10,7 8,0 7,5 15,8 20,4 14,0 0 0 8 4 N 1023,5 44 0 0,0
24.05.2017 03:00:00 11,4 8,1 8,6 16,8 20,9 14,0 3 2 8 5 W 1023,2 49 0 0,0
24.05.2017 02:00:00 13,8 8,1 10,1 17,8 21,4 14,0 5 3 9 5 W 1023,2 57 0 0,0
24.05.2017 01:00:00 15,8 7,7 11,4 19,0 21,8 13,9 5 3 18 10 WNW 1023,0 60 0 0,0
24.05.2017 00:00:00 17,0 7,5 14,6 20,2 22,3 13,9 5 3 29 16 NNW 1022,8 65 0 0,0
23.05.2017 23:00:00 18,0 7,3 16,1 21,4 22,7 13,9 10 6 26 14 NNW 1022,5 64 0 0,0
23.05.2017 22:00:00 19,0 7,4 16,6 23,2 23,1 13,9 13 7 31 17 NNW 1021,5 58 0 0,0
23.05.2017 21:00:00 20,4 8,4 19,1 25,5 23,2 13,9 21 11 45 24 NW 1020,1 56 8 0,0
23.05.2017 20:00:00 21,6 10,6 21,4 27,7 23,2 13,9 18 10 41 22 NW 1019,4 36 45 0,0
23.05.2017 19:00:00 22,9 12,5 23,9 29,5 23,1 13,9 21 11 40 21 NNW 1018,6 25 51 0,0
23.05.2017 18:00:00 23,6 12,7 24,9 30,9 22,7 13,9 19 10 40 21 NNW 1018,3 37 50 0,0
23.05.2017 17:00:00 24,2 11,2 26,4 32,2 22,2 13,9 25 14 44 24 NNW 1017,9 28 53 0,0
23.05.2017 16:00:00 25,2 11,1 28,7 32,7 21,5 13,9 21 11 41 22 NNW 1017,4 29 53 0,0
23.05.2017 15:00:00 25,0 11,4 28,1 32,7 20,8 13,9 22 12 37 20 NNW 1017,1 36 53 0,0
23.05.2017 14:00:00 25,7 11,0 32,4 31,1 20,0 13,9 14 8 31 17 W 1016,6 46 40 0,0
23.05.2017 13:00:00 25,7 12,6 32,3 30,0 19,2 13,9 7 4 18 10 NW 1016,6 40 40 0,0
23.05.2017 12:00:00 24,2 14,9 29,4 27,9 18,6 13,8 5 3 11 6 ZO 1016,9 30 59 0,0
23.05.2017 11:00:00 22,3 14,0 27,6 24,3 18,2 13,8 2 1 7 4 ZZW 1017,2 25 59 0,0
23.05.2017 10:00:00 19,3 12,4 22,7 20,9 18,0 13,8 3 2 9 5 NO 1017,3 20 59 0,0
23.05.2017 09:00:00 17,6 12,2 20,7 17,7 18,1 13,8 4 2 7 4 ONO 1017,4 19 60 0,0
23.05.2017 08:00:00 15,7 12,3 16,9 15,6 18,4 13,8 2 1 6 3 ZO 1017,6 16 39 0,0
23.05.2017 07:00:00 12,3 10,9 11,4 15,4 18,7 13,8 5 3 6 4 ZZW 1017,4 14 1 0,0
23.05.2017 06:00:00 11,9 10,9 11,1 15,5 19,1 13,8 3 2 6 4 ZZW 1017,2 16 0 0,0
23.05.2017 05:00:00 11,6 10,8 9,3 15,8 19,5 13,8 4 2 6 4 ZZW 1016,9 17 0 0,0
23.05.2017 04:00:00 11,5 11,1 9,1 16,8 20,0 13,8 3 2 5 3 ZZW 1016,5 15 0 0,0
23.05.2017 03:00:00 13,1 11,6 11,2 17,7 20,4 13,8 2 1 4 2 ZW 1016,6 21 0 0,0
23.05.2017 02:00:00 13,7 11,8 11,7 18,5 20,8 13,8 5 3 6 3 ZZW 1016,8 26 0 0,0
23.05.2017 01:00:00 14,6 12,1 12,9 19,4 21,2 13,8 4 2 6 3 Z 1017,0 30 0 0,0
23.05.2017 00:00:00 15,1 11,8 13,3 20,4 21,7 13,8 3 2 8 5 ZZW 1016,8 32 0 0,0
22.05.2017 23:00:00 16,5 12,0 13,4 21,8 22,1 13,8 3 2 5 3 WNW 1016,6 42 0 0,0
22.05.2017 22:00:00 17,9 11,4 14,0 23,6 22,3 13,8 2 1 7 4 ZZW 1016,4 44 0 0,0
22.05.2017 21:00:00 20,0 11,1 16,9 26,1 22,4 13,8 5 3 11 6 Z 1016,2 55 0 0,0
22.05.2017 20:00:00 22,0 10,8 21,0 28,6 22,2 13,8 7 4 13 7 ZZO 1015,9 59 31 0,0
22.05.2017 19:00:00 23,7 9,2 24,2 31,2 21,8 13,8 6 3 14 7 ZZO 1016,2 61 60 0,0
22.05.2017 18:00:00 24,6 9,5 25,9 32,4 21,1 13,8 4 2 18 10 Z 1016,6 50 60 0,0
22.05.2017 17:00:00 23,3 9,2 27,0 32,6 20,4 13,8 11 6 22 12 ZO 1017,0 53 60 0,0
22.05.2017 16:00:00 23,3 9,1 27,6 32,6 19,5 13,8 12 6 23 13 ZO 1017,4 51 55 0,0
22.05.2017 15:00:00 22,6 9,7 25,6 31,7 18,6 13,8 14 7 25 13 OZO 1017,8 42 55 0,0
22.05.2017 14:00:00 22,4 9,9 27,2 29,1 17,7 13,8 14 8 26 14 ZO 1018,3 48 40 0,0
22.05.2017 13:00:00 21,8 10,0 26,7 28,2 16,9 13,8 9 5 22 12 O 1018,8 53 57 0,0
22.05.2017 12:00:00 20,6 10,2 25,6 25,0 16,2 13,8 5 3 10 5 N 1019,6 51 60 0,0
22.05.2017 11:00:00 18,9 10,1 23,2 21,4 15,8 13,8 2 1 13 7 ZW 1020,3 52 60 0,0
22.05.2017 10:00:00 16,8 9,7 20,6 17,8 15,7 13,8 4 2 9 5 ZZO 1020,7 43 60 0,0
22.05.2017 09:00:00 14,5 9,4 16,1 14,4 15,8 13,8 3 2 5 3 O 1021,1 35 60 0,0
22.05.2017 08:00:00 11,5 9,0 12,7 12,1 16,0 13,8 3 2 8 4 Z 1021,5 31 60 0,0
22.05.2017 07:00:00 8,3 7,2 8,4 11,3 16,4 13,8 5 3 8 4 ZZW 1021,6 32 20 0,0
22.05.2017 06:00:00 7,3 6,7 5,4 11,7 16,8 13,8 3 2 8 5 ZW 1021,7 36 0 0,0
22.05.2017 05:00:00 7,7 7,0 6,2 12,3 17,3 13,8 7 4 9 5 ZZW 1021,7 39 0 0,0
22.05.2017 04:00:00 8,1 7,5 6,0 13,1 17,7 13,8 5 3 8 4 ZZW 1022,0 41 0 0,0
22.05.2017 03:00:00 9,2 8,1 7,0 14,0 18,1 13,8 5 3 8 4 ZW 1022,4 57 0 0,0
22.05.2017 02:00:00 9,8 8,5 7,5 14,9 18,6 13,8 5 3 8 5 ZZW 1022,4 66 0 0,0
22.05.2017 01:00:00 10,7 9,0 8,7 16,0 19,0 13,8 6 4 8 4 ZZW 1022,5 41 0 0,0
22.05.2017 00:00:00 12,1 9,9 9,1 17,2 19,4 13,8 3 1 7 4 W 1022,6 70 0 0,0
21.05.2017 23:00:00 13,5 10,6 9,7 18,8 19,8 13,8 2 1 4 2 WZW 1022,9 70 0 0,0
21.05.2017 22:00:00 16,1 8,2 11,4 20,7 20,0 13,8 2 1 9 5 NW 1022,9 70 0 0,0
21.05.2017 21:00:00 18,1 8,2 15,1 22,9 20,1 13,8 5 3 16 9 O 1022,8 70 5 0,0
21.05.2017 20:00:00 19,9 6,3 18,5 24,9 20,0 13,8 7 4 18 10 OZO 1023,2 70 32 0,0
21.05.2017 19:00:00 20,4 8,6 20,4 26,3 19,6 13,8 4 2 16 9 ZZO 1023,5 70 20 0,0
21.05.2017 18:00:00 20,6 7,6 22,4 28,1 19,1 13,8 9 5 22 12 ZZO 1024,0 70 43 0,0
21.05.2017 17:00:00 21,0 6,5 23,8 28,9 18,4 13,8 3 2 19 11 Z 1024,5 70 30 0,0
21.05.2017 16:00:00 20,7 6,2 24,4 29,8 17,5 13,8 6 3 20 11 ONO 1025,2 70 54 0,0
21.05.2017 15:00:00 20,4 7,5 25,6 28,7 16,6 13,8 7 4 22 12 ZZW 1025,6 68 60 0,0
21.05.2017 14:00:00 19,7 5,7 23,4 27,6 15,7 13,8 6 3 16 9 ONO 1026,3 61 60 0,0
21.05.2017 13:00:00 19,1 4,2 23,3 24,9 14,9 13,8 5 3 14 8 OZO 1027,1 67 60 0,0
21.05.2017 12:00:00 17,6 5,7 22,0 21,8 14,3 13,8 5 3 10 5 OZO 1027,7 70 60 0,0
21.05.2017 11:00:00 15,2 9,5 19,2 18,1 13,9 13,8 3 2 7 4 ZZO 1028,1 43 60 0,0
21.05.2017 10:00:00 11,7 8,9 14,3 14,1 13,8 13,8 3 1 7 4 ZW 1028,7 19 31 0,0
21.05.2017 09:00:00 8,2 7,7 9,6 11,6 13,9 13,8 2 1 6 3 ZW 1028,9 4,7 0 0,0
21.05.2017 08:00:00 7,4 7,1 8,4 10,1 14,1 13,8 3 2 5 3 OZO 1028,8 7 0 0,0
21.05.2017 07:00:00 5,8 5,5 6,3 8,8 14,5 13,8 4 2 6 4 ZZW 1028,6 29 0 0,0
21.05.2017 06:00:00 4,7 4,7 2,4 8,8 14,9 13,8 5 3 7 4 ZZW 1028,2 23 0 0,0
21.05.2017 05:00:00 5,0 4,9 3,0 9,3 15,3 13,8 6 3 7 4 ZZW 1028,0 25 0 0,0
21.05.2017 04:00:00 5,3 5,3 2,0 10,0 15,7 13,8 4 2 6 3 ZZW 1028,0 19 0 0,0
21.05.2017 03:00:00 5,9 5,8 2,6 10,7 16,1 13,8 4 2 6 4 Z 1027,8 25 0 0,0
21.05.2017 02:00:00 6,7 6,7 3,2 11,6 16,5 13,7 3 2 6 3 ZZW 1027,6 20 0 0,0
21.05.2017 01:00:00 7,2 6,9 4,3 12,5 16,9 13,7 3 2 7 4 ZZW 1027,3 25 0 0,0
21.05.2017 00:00:00 9,0 8,1 5,7 13,5 17,3 13,7 4 2 6 3 ZZW 1026,8 56 0 0,0
20.05.2017 23:00:00 9,3 8,6 6,7 14,8 17,6 13,7 3 2 6 3 Z 1026,3 35 0 0,0
20.05.2017 22:00:00 11,0 9,6 7,5 16,3 17,8 13,7 2 1 8 5 WZW 1025,5 70 0 0,0
20.05.2017 21:00:00 14,2 9,3 10,8 18,0 17,9 13,7 6 3 14 7 Z 1024,9 70 8 0,0
20.05.2017 20:00:00 16,2 8,0 15,6 19,5 17,9 13,7 9 5 16 9 Z 1024,4 70 0 0,0
20.05.2017 19:00:00 16,8 6,9 17,3 20,7 17,7 13,7 6 3 19 10 ZW 1023,9 70 0 0,0
20.05.2017 18:00:00 16,7 7,3 17,7 22,1 17,5 13,7 10 5 22 12 ZW 1023,7 70 19 0,0
20.05.2017 17:00:00 17,4 8,4 20,9 21,9 17,2 13,7 14 8 24 13 ZW 1023,3 70 22 0,0
20.05.2017 16:00:00 16,1 8,1 17,1 21,3 16,8 13,7 7 4 23 13 ZZW 1023,0 70 2 0,0

tt = temperatuur
td = dauwpunt
tt 5cm = temperatuur 5cm
tt -5cm = temperatuur -5cm
tt -20cm = temperatuur -20cm
tt -100cm = temperatuur -100cm
ff = windsnelheid
fx = windstoten
dd = windrichting
ppp = luchtdruk
vv = zicht
sd = Zonneschijnduur
rr = neerslag

Weerstations in de omgeving